This is the latest recevied weather packets stored in our database for station/object W8DRH-13. If no packets are shown the sender has not sent any weather packets the latest 10 day(s).
| Time | Temp. | Humidity | Pressure | Rain* | Wind** | Luminosity | Snow |
|---|---|---|---|---|---|---|---|
| 1777682527 | 6.11° C | 88% | 1013.4 hPa | 0 mm | - | 0 W/m² | - |
| 1777682225 | 6.11° C | 89% | 1013.1 hPa | 0 mm | - | 0 W/m² | - |
| 1777681922 | 6.11° C | 88% | 1013.2 hPa | 0 mm | - | 0 W/m² | - |
| 1777681617 | 5.56° C | 89% | 1013.1 hPa | 0 mm | - | 0 W/m² | - |
| 1777681316 | 5.56° C | 89% | 1012.9 hPa | 0 mm | - | 1 W/m² | - |
| 1777681012 | 5.56° C | 89% | 1013.2 hPa | 0 mm | - | 4 W/m² | - |
| 1777680710 | 5.56° C | 89% | 1013 hPa | 0 mm | - | 4 W/m² | - |
| 1777680408 | 5.56° C | 89% | 1012.9 hPa | 0 mm | - | 5 W/m² | - |
| 1777680105 | 5.56° C | 89% | 1012.8 hPa | 0 mm | - | 6 W/m² | - |
| 1777679801 | 5.56° C | 90% | 1012.5 hPa | 0 mm | - | 12 W/m² | - |
| 1777679497 | 5.56° C | 90% | 1012.8 hPa | 0 mm | - | 23 W/m² | - |
| 1777679192 | 5.56° C | 89% | 1012.3 hPa | 0 mm | - | 38 W/m² | - |
| 1777678890 | 5.56° C | 89% | 1012.4 hPa | 0 mm | - | 43 W/m² | - |
| 1777678588 | 5.56° C | 89% | 1012.3 hPa | 0 mm | - | 44 W/m² | - |
| 1777678285 | 5.56° C | 89% | 1012.4 hPa | 0 mm | - | 38 W/m² | - |
| 1777677981 | 5.56° C | 89% | 1012.5 hPa | 3.56 mm | - | 35 W/m² | - |
| 1777677679 | 5.56° C | 89% | 1012.5 hPa | 3.56 mm | - | 18 W/m² | - |
| 1777677376 | 6.11° C | 88% | 1012.6 hPa | 1.27 mm | - | 10 W/m² | - |
| 1777677074 | 6.11° C | 87% | 1012.5 hPa | 3.05 mm | - | 12 W/m² | - |
| 1777676773 | 6.11° C | 86% | 1012.6 hPa | 1.78 mm | - | 14 W/m² | - |
| 1777676470 | 6.11° C | 85% | 1012.5 hPa | 1.27 mm | - | 17 W/m² | - |
| 1777676168 | 7.22° C | 85% | 1012.5 hPa | 1.27 mm | - | 19 W/m² | - |
| 1777675864 | 7.22° C | 85% | 1012.4 hPa | 0 mm | - | 25 W/m² | - |
| 1777675561 | 7.22° C | 84% | 1012.5 hPa | 0 mm | - | 22 W/m² | - |
| 1777675258 | 7.22° C | 84% | 1012.6 hPa | 0 mm | - | 45 W/m² | - |
* Rain latest hour (hover to see other rain measurements)
** Current wind speed in m/s (hover to see current wind gust speed)